Vorticity
nan nan nan nan nan nan nan nan nan nan nan nan nan nan nan nan nan nan nan nan nan nan nan nan nan nan nan nan nan nan nan nan nan nan nan nan nan nan nan nan nan nan nan nan
nan 10 3 5 8 5 8 7 7 7 6 9 17 6 7 8 9 3 10 9 3 9 14 14 9 8 10 12 15 10 7 5 4 6 7 8 9 8 8 8 9 10 10 nan
nan 11 9 6 5 9 8 7 8 5 8 14 17 13 17 9 3 10 9 3 11 5 6 13 14 12 9 4 17 17 10 6 5 4 4 6 7 9 9 9 9 10 10 nan
nan 18 13 8 5 6 6 9 8 10 9 6 4 21 19 12 7 5 7 11 9 6 4 5 10 13 11 8 6 14 14 9 8 6 5 6 6 6 8 9 9 11 10 nan
nan 17 20 13 13 1 3 7 7 14 14 8 4 10 15 13 8 6 8 7 5 7 5 6 7 14 13 6 5 9 8 12 14 8 4 6 6 6 8 11 12 10 10 nan
nan 3 15 23 15 15 15 5 10 9 16 25 13 4 9 13 12 10 7 12 13 8 8 6 6 7 10 14 9 9 10 6 7 12 13 4 6 6 5 8 9 9 10 nan
nan 27 14 8 18 20 14 11 10 13 12 12 15 7 2 3 1 3 15 16 33 31 12 12 10 7 7 9 17 19 13 9 9 7 14 14 7 8 5 5 11 9 8 nan
nan 9 5 19 19 21 16 3 5 3 7 14 15 10 7 1 4 4 7 15 10 17 16 16 16 11 7 8 10 11 15 19 14 10 9 12 12 10 11 6 6 9 11 nan
nan 7 6 6 20 21 22 21 6 4 4 12 17 18 15 16 15 7 13 5 3 13 8 7 9 10 11 9 8 8 8 11 11 13 15 12 10 10 11 11 9 9 9 nan
nan 12 8 5 16 25 15 17 20 20 11 8 12 12 21 17 23 29 18 9 8 6 8 7 8 8 8 9 9 8 11 11 10 9 11 17 15 8 12 12 9 10 9 nan
nan 13 5 12 13 14 16 9 11 10 16 15 16 10 9 11 20 24 12 7 7 8 8 6 8 7 8 7 9 9 10 12 12 12 11 9 12 16 13 8 10 10 11 nan
nan 12 9 18 14 7 6 10 12 9 11 11 13 8 2 9 11 4 3 3 5 6 7 8 9 8 9 9 8 9 8 10 10 11 12 11 10 10 11 14 11 10 10 nan
nan 11 9 19 3 -2 12 9 9 12 4 6 8 -3 -12 -4 -0 6 7 4 1 4 6 8 8 8 7 7 8 10 9 9 9 9 10 12 13 11 10 10 12 13 10 nan
nan 6 7 7 4 2 -1 10 9 -1 4 5 2 -1 -4 -4 4 8 4 8 5 7 6 4 5 7 5 7 8 7 8 8 8 9 9 10 10 11 10 13 16 15 14 nan
nan 4 3 5 7 10 11 11 6 9 7 0 1 8 9 16 11 1 8 6 6 8 10 10 5 4 6 9 9 8 9 6 9 8 9 8 10 9 10 9 12 15 15 nan
nan 8 6 9 11 13 11 10 11 13 12 10 11 11 14 13 7 13 18 11 11 11 11 11 10 7 8 9 7 10 10 9 9 8 8 8 8 9 9 9 9 10 13 nan
nan 7 9 8 4 14 23 15 11 8 8 14 12 6 8 12 14 13 12 21 20 18 16 14 12 11 10 9 10 9 6 10 9 9 9 10 9 10 8 8 8 10 10 nan
nan 10 11 10 12 13 4 7 15 20 12 15 12 13 12 14 12 8 7 10 12 12 12 13 15 14 11 10 8 7 8 8 9 9 10 10 11 12 12 8 8 10 12 nan
nan 12 13 13 10 7 13 16 9 10 4 12 17 13 9 12 20 12 2 1 4 5 7 7 5 6 9 9 6 6 8 10 9 9 8 10 11 12 12 9 10 10 11 nan
nan 13 8 6 10 11 9 6 7 10 9 -3 5 6 6 10 12 4 1 5 11 11 10 7 7 7 7 8 9 7 7 7 9 11 10 9 9 10 12 15 10 11 11 nan
nan 11 9 7 9 8 5 4 21 10 -2 1 9 8 10 12 7 5 8 9 9 9 10 13 13 11 11 10 8 8 9 8 10 9 10 11 11 10 15 15 11 11 11 nan
nan 9 12 12 10 2 1 5 14 11 4 9 10 11 8 7 8 11 10 9 9 11 12 12 14 16 13 11 11 11 8 9 10 11 11 12 12 13 16 11 10 11 11 nan
nan 9 13 7 1 4 6 6 1 8 11 7 7 11 11 8 8 9 11 12 10 10 12 13 12 7 16 18 11 13 13 13 10 10 10 13 12 10 12 12 9 10 11 nan
nan 10 10 8 7 6 11 10 11 8 8 11 9 8 10 11 10 10 12 12 13 12 11 10 11 14 12 12 15 12 12 15 13 9 11 11 12 10 8 9 11 10 10 nan
nan 8 12 9 7 10 11 10 10 11 12 13 10 9 10 14 12 10 9 11 12 11 10 10 11 11 11 14 16 17 14 13 11 12 13 11 13 12 9 10 10 9 11 nan
nan nan nan nan nan nan nan nan nan nan nan nan nan nan nan nan nan nan nan nan nan nan nan nan nan nan nan nan nan nan nan nan nan nan nan nan nan nan nan nan nan nan nan nan
CAPE
0 1 10 3 19 4 0 0 0 0 0 0 0 0 0 0 0 0 0 0 0 0 0 0 0 0 443 1757 1499 1374 1600 1711 2060 1967 1930 1839 1692 1713 1605 1374 1599 1674 1837 1811
3 1 2 17 17 0 9 1 0 0 0 0 0 0 0 0 0 0 0 0 0 0 0 0 0 0 332 1864 1997 1362 1673 1693 1934 1936 2027 1804 1633 1551 1546 1555 1585 1651 1972 1801
24 0 0 8 32 11 19 23 13 4 19 21 0 0 0 0 0 0 0 0 0 0 0 0 0 3 238 2164 2182 1120 1627 1777 1782 1860 1949 1805 1622 1584 1615 1733 1633 1750 1764 1870
36 0 0 0 15 39 44 15 32 13 13 17 0 0 0 0 0 0 0 0 0 0 0 0 0 0 112 959 1568 1882 1263 1780 1742 1713 1681 1691 1643 1546 1722 1725 1783 1709 1713 1682
27 48 0 0 2 32 17 0 1 34 25 11 3 2 0 0 0 0 0 0 0 0 0 0 0 0 50 12 132 954 945 1266 2072 1717 1778 1801 1875 1855 2005 2121 2144 1956 1913 1720
1 1 59 4 0 6 7 36 5 0 0 35 10 15 0 0 1 0 0 0 0 0 0 0 0 0 0 2 29 105 108 33 100 952 2647 2576 2772 2627 2454 2465 2537 2443 2251 2048
25 0 29 18 18 0 0 63 67 13 31 10 0 28 0 0 0 0 0 1 0 0 0 0 0 0 0 0 0 68 111 29 20 6 155 2969 2790 2677 2494 2330 2417 2576 2579 2483
14 49 3 120 87 19 9 14 52 29 60 0 5 14 0 0 0 0 0 0 0 0 0 0 0 0 0 0 0 35 0 3 48 140 50 48 2280 2675 2515 2172 2040 1809 2558 2660
52 5 0 1 65 76 16 27 14 86 31 1 0 12 0 0 0 0 0 0 0 0 0 0 0 0 0 0 0 0 0 0 0 18 41 157 62 1075 2079 2158 2526 2065 2552 2253
15 22 2 1 0 99 88 116 83 79 91 6 0 0 0 8 7 1 34 9 0 0 0 0 0 0 0 0 0 4 23 5 0 0 24 678 451 201 1373 2114 2111 2113 2035 2541
12 13 2 2 9 3 39 92 7 40 60 27 2 8 19 5 1 0 0 0 0 0 0 0 0 0 0 0 0 0 4 53 180 336 93 37 157 1935 2113 1911 1935 2116 1958 2012
1 9 29 0 10 5 0 0 0 6 7 7 17 25 13 0 2 0 0 0 0 0 0 0 0 0 0 0 0 0 0 0 3 34 257 793 724 450 733 2201 2291 2437 2330 2486
0 21 25 13 14 0 0 1 10 2 5 1 1 5 8 0 0 0 0 0 0 0 0 0 0 0 0 0 0 0 0 0 0 0 0 124 1108 959 749 636 1431 2323 2396 2361
18 5 6 11 0 0 0 0 25 5 0 2 2 0 0 0 0 0 0 0 0 0 0 0 0 0 0 0 0 0 0 0 0 0 0 0 140 141 380 753 1300 1808 2460 2193
24 7 15 1 1 0 0 0 0 1 9 20 0 0 0 0 8 0 0 0 0 0 0 0 0 0 0 0 0 0 0 0 0 0 0 0 0 33 19 49 257 807 1323 1345
48 12 6 0 0 0 4 0 0 0 0 0 0 0 0 0 0 1 0 0 0 0 0 0 0 0 0 0 0 0 0 0 0 0 0 0 0 0 0 0 1 0 122 301
55 60 37 8 9 1 0 0 1 0 2 0 0 0 0 0 0 0 1 1 0 0 0 0 0 0 0 0 0 0 0 0 0 0 0 0 0 0 0 0 0 0 0 0
35 49 74 40 6 3 1 18 16 5 0 0 0 0 0 0 1 13 3 18 13 1 0 0 0 0 0 0 0 0 0 0 0 0 0 0 0 0 0 0 0 0 0 1
17 45 55 24 36 5 0 20 1 1 0 60 29 5 27 31 52 11 43 2 0 2 0 0 0 0 0 0 0 0 0 0 0 0 0 0 0 0 0 1 1 1 1 1
6 20 40 39 36 29 16 4 16 2 1 2 4 1 0 0 11 1 0 0 2 24 33 2 0 0 0 0 0 0 0 0 0 0 0 0 0 0 0 0 0 0 0 0
20 39 69 72 32 12 1 19 13 24 21 1 1 1 7 4 12 1 2 0 1 3 18 38 18 8 3 1 0 0 0 0 0 0 0 0 0 0 0 0 0 0 0 1
17 31 64 69 42 36 29 3 0 1 12 18 12 15 42 53 29 9 16 20 13 7 9 16 31 35 25 18 12 3 2 0 0 0 0 0 0 0 0 0 0 1 1 1
32 55 53 16 39 50 1 31 31 56 47 46 63 58 43 41 36 33 18 18 18 25 16 23 44 54 21 26 27 20 0 12 0 0 0 0 4 0 0 1 1 1 0 0
2 6 38 38 0 7 27 10 20 24 60 33 48 54 47 36 36 32 23 15 11 16 16 14 33 38 28 37 29 41 28 36 25 0 0 0 0 0 0 0 0 0 0 0
6 20 2 13 1 24 26 28 47 24 39 40 47 46 40 31 17 20 14 10 13 12 4 3 2 10 25 40 33 58 45 56 52 23 2 0 0 0 1 0 0 0 0 0
3 10 48 56 32 72 52 93 68 66 88 67 47 15 12 11 7 5 9 10 10 10 10 10 10 6 9 19 34 37 43 57 50 25 2 1 0 0 0 0 0 0 0 0